Location: Aigremont
(47.7188°N, 3.8925°E)
Time: 23:20:39
(UTC+00:00)

Meteor PRIRODA - Pass Details

Date: 18 February 2020
Orbit: 490 x 512 km, 97.5° (Epoch: 05 April)

Event Time Altitude Azimuth Distance (km) Brightness Sun altitude
Rises 04:45:17 0° 14° (NNE) 2,625 7.5 -21.0°
Reaches altitude 10° 04:47:24 10° 16° (NNE) 1,731 6.6 -20.6°
Maximum altitude 04:51:08 77° 102° (ESE) 523 3.7 -20.0°
Drops below altitude 10° 04:54:48 10° 189° (S) 1,702 6.2 -19.4°
Enters shadow 04:54:49 10° 189° (S) 1,712 6.2 -19.4°
